Accueil
METAR-TAF:

METAR-TAF

Aéroports :

Aéroport de Morlaix Ploujean

Morlaix, France

latitude: 48-36N, longitude: 3-49W, altitude: 84 m

Observation

Le bulletin a été fait il y a 11 heures et 55 minutes, à 18:00 UTC
Vent 8 kt de est
Température 3°C
Humidité 93%
Pression 1029 hPa
Visibilité: 7000 m
Ciel couvert à une hauteur de 600 ft

METAR: LFRU 231800Z AUTO 08008KT 7000 OVC006 03/02 Q1029

Heure: 06:55 (05:55 UTC)


TAF: absent

Observations et prévisions météorologiques de plus de 4000 aéroports (messages METAR et TAF).

Les stations disponibles sont représentées par des disques jaunes et rouges sur la carte.

Passer la souris dessus pour voir le nom de la station.

Cliquer dessus pour voir les observations et prévisions météorologiques.

Pour changer de carte: cliquez sur les boutons verts avec une croix noire pour zoomer, sur le bouton vert avec un tiret pour effectuer un zoom arrière, ou sur les flèches vertes pour les cartes adjacentes.


METAR-TAF: